Wind_Speed
12 13 13 14 15 15 15 15 16 16 16 17 16 14 10 8 8 8 9 10 10 10 10 11 12 13 7 3 2 7 7 6 7 10 10 6 7 5 4 5 7 4 5 10 12 12 12
12 13 13 14 14 15 15 16 16 17 18 19 18 13 9 9 9 11 11 9 9 9 9 10 10 11 3 2 5 5 7 5 6 8 10 8 3 5 4 4 2 4 8 12 8 13 10
11 12 13 13 14 15 15 16 17 18 19 22 20 12 10 11 12 11 10 9 8 8 7 8 7 6 3 6 4 7 5 6 6 2 1 4 3 2 3 5 4 8 8 11 10 10 7
10 11 12 13 13 14 14 16 17 18 20 23 21 12 11 12 12 11 9 8 6 6 5 5 4 2 4 5 6 7 4 9 8 5 4 4 4 4 3 4 6 4 3 4 7 6 6
10 11 12 12 13 13 14 15 17 18 21 25 22 13 13 12 11 10 8 6 4 4 5 4 1 1 6 4 3 4 6 4 10 9 11 7 2 3 3 2 4 2 3 5 6 2 5
10 11 12 12 13 14 15 16 17 18 21 24 22 15 15 13 11 10 8 6 4 5 2 0 3 2 4 2 3 5 6 6 3 7 5 2 2 2 2 2 4 7 6 5 8 4 2
9 11 12 13 13 14 15 16 16 18 19 22 22 16 15 13 10 9 9 1 4 2 2 5 3 3 1 7 3 3 2 2 3 2 2 4 1 6 8 6 8 7 6 11 16 7 4
9 10 12 12 13 15 16 17 18 18 20 20 22 16 15 14 7 8 6 5 3 1 5 8 5 4 6 1 3 3 2 1 1 4 6 4 7 10 7 7 7 8 9 10 8 3 6
11 11 12 13 14 15 16 17 18 18 18 19 20 18 15 13 4 5 7 4 2 2 0 3 2 3 1 0 4 2 4 2 5 3 5 4 9 6 5 9 10 5 6 5 7 6 4
12 13 14 15 16 17 17 18 19 19 19 18 19 18 15 12 2 6 2 4 2 1 4 3 1 1 0 1 3 1 2 1 3 4 5 6 5 2 6 7 3 6 4 5 10 5 3
13 14 15 16 17 18 19 19 20 21 21 20 18 18 12 7 4 2 4 4 3 1 4 3 2 1 1 2 5 1 1 2 4 6 2 8 5 3 5 4 2 10 9 14 13 5 4
13 14 15 16 17 17 18 20 21 22 23 22 18 18 11 5 3 3 4 3 1 5 3 1 1 2 3 3 3 2 1 1 4 4 4 9 4 3 4 7 5 8 8 8 3 3 2
13 14 15 15 16 18 19 19 20 22 24 24 19 17 9 5 3 5 4 2 4 4 2 2 2 1 2 3 3 1 2 5 3 7 6 7 3 1 0 6 5 10 6 4 6 5 4
9 10 13 16 15 16 16 19 21 22 24 27 21 14 7 5 5 3 1 4 3 4 4 0 2 2 3 1 2 2 3 2 1 0 3 2 8 1 1 1 4 4 2 4 3 3 5
13 14 15 16 15 15 16 17 19 21 23 27 23 8 4 3 3 1 4 2 7 6 3 1 2 1 2 2 2 2 3 3 3 2 1 5 6 4 3 1 3 6 4 3 1 2 3
15 16 14 17 17 15 15 15 16 18 21 24 19 8 4 2 2 2 4 6 4 2 4 2 4 4 3 2 1 0 2 3 4 2 4 2 6 3 1 1 2 3 3 4 3 3 4
14 15 17 18 19 18 16 16 15 16 17 17 8 4 1 3 3 4 3 7 4 1 2 4 3 3 6 3 3 3 4 2 3 4 3 2 3 6 3 1 2 2 2 1 2 4 2
15 16 17 18 19 20 20 19 16 15 15 10 5 2 2 6 1 3 3 5 1 4 2 3 2 5 5 5 3 4 4 2 5 4 2 4 2 5 5 4 1 1 2 2 4 5 2
16 17 17 17 17 18 20 20 20 12 10 8 3 3 3 3 3 3 5 5 4 5 5 6 5 6 3 5 3 6 3 3 5 4 3 2 2 4 8 2 2 1 3 3 1 2 5
15 16 16 16 17 18 18 19 20 18 11 2 2 3 2 1 2 3 3 5 5 4 4 5 3 4 3 4 5 3 3 4 6 5 6 2 2 6 6 7 0 6 4 4 2 3 3
15 15 16 14 16 15 17 19 21 22 14 2 2 4 4 3 4 5 4 4 3 3 4 4 2 8 7 6 4 6 6 3 2 4 3 5 5 4 7 13 9 12 15 11 9 8 6
13 15 16 15 15 17 19 20 18 21 20 4 2 2 4 3 4 4 5 4 10 7 7 5 6 6 9 7 10 8 7 5 6 4 6 2 4 2 6 5 6 9 12 12 14 9 9
12 13 15 15 15 15 16 20 19 15 17 5 9 8 3 3 3 10 6 6 7 5 7 8 12 7 8 17 15 4 5 4 6 9 8 7 4 1 5 6 10 5 4 3 2 2 3
11 12 14 14 13 13 14 17 18 16 12 9 5 4 3 10 10 13 18 20 19 15 13 9 6 7 5 3 5 3 3 4 6 7 6 6 5 3 4 5 1 4 2 4 4 0 2
12 11 13 13 14 15 13 15 15 15 13 12 6 4 3 12 14 19 19 15 17 16 20 17 14 7 7 5 2 2 2 4 4 1 6 4 5 2 2 3 6 2 4 5 5 4 3
13 13 12 13 14 14 13 13 12 14 13 13 15 11 7 7 11 15 18 19 17 15 15 17 4 4 4 4 4 8 8 6 4 1 3 3 4 4 2 4 6 4 3 2 3 4 5
16 15 15 16 16 17 17 16 16 14 15 13 10 12 7 9 15 18 14 13 8 10 13 12 4 4 2 5 9 7 8 7 8 9 7 4 2 10 5 5 7 7 6 4 4 6 6
20 20 18 18 19 20 20 19 18 17 16 15 14 11 9 6 15 21 21 22 14 12 16 5 2 3 0 5 7 5 5 8 7 8 10 11 9 5 4 4 8 8 5 7 4 4 6
22 22 22 21 20 21 19 20 21 20 17 19 21 15 16 11 17 42 51 46 35 34 20 14 22 14 7 5 4 3 5 3 8 10 4 5 8 8 10 8 5 7 3 4 5 6 5
Wind_Direction
42 37 31 26 25 23 19 14 13 11 7 2 357 349 337 325 325 320 306 294 295 304 320 333 343 347 358 353 270 309 331 25 22 10 5 12 35 7 1 320 335 255 319 323 311 306 302
38 35 32 30 25 21 18 15 11 13 9 4 359 354 350 342 332 324 316 300 289 290 307 326 338 346 348 343 324 316 326 10 7 21 9 49 1 301 269 270 249 262 292 282 280 282 276
37 35 30 28 25 20 17 13 13 11 9 6 2 4 358 346 335 328 320 308 295 285 296 325 340 350 324 238 308 312 323 307 301 31 17 22 333 16 304 286 277 277 286 294 272 260 251
34 31 28 25 21 17 14 13 12 11 8 4 4 7 358 350 346 335 323 309 295 278 288 316 337 322 247 254 300 293 317 299 285 281 221 262 267 254 212 281 312 331 321 327 282 286 259
30 24 21 19 16 14 11 10 8 9 7 6 4 6 357 354 353 351 343 324 297 277 286 301 358 181 284 281 268 266 287 279 310 292 254 247 223 244 326 289 325 19 267 273 302 338 303
23 20 19 16 15 10 9 7 7 9 7 7 5 2 358 353 353 355 346 319 302 295 296 235 265 13 257 274 303 259 265 263 279 310 318 182 198 272 303 93 303 303 296 283 256 246 256
21 17 16 11 13 10 6 5 7 7 7 6 5 1 358 356 351 357 358 357 15 2 256 210 200 241 242 310 278 222 221 274 245 277 278 211 260 263 250 217 229 254 263 264 280 247 214
10 7 10 5 5 8 10 7 4 4 3 4 5 0 357 353 360 11 4 68 119 196 317 280 253 287 276 2 299 214 198 283 298 286 307 4 250 268 263 283 267 258 269 279 279 228 218
16 8 8 9 6 8 4 4 1 0 358 359 2 0 353 351 7 32 52 72 93 140 320 297 221 269 267 311 280 233 163 328 241 267 286 227 253 314 314 305 311 274 246 272 267 317 269
16 14 10 9 8 5 3 1 359 358 355 354 355 359 354 355 69 1 46 349 2 154 60 279 271 247 284 246 287 219 159 178 299 273 298 254 265 312 329 298 330 308 238 292 295 356 282
7 4 3 3 2 1 1 359 358 356 354 350 350 353 357 12 338 63 319 323 328 177 45 244 242 195 194 187 287 256 190 96 239 258 44 261 295 315 308 259 12 253 298 287 289 217 31
349 349 351 352 353 353 353 352 354 355 351 346 345 344 348 347 318 334 321 327 348 42 269 309 173 278 329 184 249 176 202 300 254 291 214 244 289 193 233 296 255 285 308 314 51 95 36
324 323 323 327 331 338 344 346 348 350 349 346 341 337 330 318 313 318 321 68 29 121 264 224 241 48 351 279 307 172 273 330 3 7 343 321 312 157 226 323 337 18 18 351 2 5 241
346 345 339 331 322 320 322 332 340 344 345 343 338 333 326 283 281 299 349 45 98 249 245 205 197 291 199 52 247 280 304 344 311 190 298 27 332 308 186 228 272 309 93 127 301 315 287
351 343 344 340 324 323 323 315 324 333 340 342 338 332 318 296 257 206 77 58 210 205 163 203 322 285 239 234 248 17 223 202 161 121 67 359 276 326 206 199 119 320 27 181 230 270 22
14 16 8 6 359 338 325 331 321 320 331 342 333 325 260 254 202 126 85 237 239 178 126 130 215 191 242 213 199 349 251 195 172 154 134 287 299 255 310 11 235 190 287 25 14 341 321
6 9 8 9 3 356 344 331 327 327 326 338 319 340 185 166 151 53 185 232 264 202 157 179 242 231 228 239 192 244 252 194 167 180 155 209 167 291 340 225 234 355 12 310 187 143 208
9 7 8 3 3 7 2 355 341 333 329 331 323 312 175 157 73 226 204 213 245 181 126 237 234 222 211 192 236 239 247 236 144 143 204 202 177 277 264 302 316 191 221 130 117 300 262
6 3 2 359 359 2 4 5 358 348 356 328 297 262 189 174 216 235 273 265 222 171 200 194 223 219 184 205 223 208 234 139 147 146 192 169 265 322 336 340 310 274 213 214 142 106 232
360 355 353 356 356 356 355 355 356 354 346 311 321 309 314 65 261 213 264 251 237 201 227 196 213 136 160 233 232 262 234 200 176 165 141 103 245 200 211 240 33 288 261 290 237 187 247
358 357 357 0 5 4 359 358 356 351 335 241 208 246 227 260 268 230 202 254 295 252 216 192 252 212 182 205 207 217 224 171 173 172 162 148 222 229 249 266 275 270 278 279 214 223 221
349 350 352 357 4 355 352 352 347 352 351 244 291 318 349 283 299 280 201 237 224 249 165 228 211 246 199 209 205 207 181 192 197 182 174 197 266 284 296 278 268 284 273 263 255 244 246
338 341 351 344 345 354 356 356 357 355 3 347 360 348 324 256 251 266 247 241 253 248 240 211 206 217 197 221 231 217 199 182 175 158 188 164 188 99 263 331 320 289 225 260 212 194 197
318 330 337 342 345 346 349 353 356 360 350 341 327 304 280 271 265 262 267 268 276 278 284 284 254 194 222 107 106 135 175 213 181 208 169 167 162 163 264 348 324 250 171 228 173 261 306
304 309 324 322 327 331 339 339 345 353 347 339 320 309 282 273 271 274 281 283 278 267 269 274 261 241 153 129 104 262 324 344 246 29 212 175 148 216 215 231 292 286 199 178 190 236 211
308 303 304 307 307 317 322 323 330 333 336 340 327 315 259 286 263 259 265 270 276 280 281 272 252 222 152 153 170 204 217 192 222 237 8 109 109 151 172 222 227 235 181 141 120 266 181
301 301 300 299 302 307 309 316 316 322 323 317 297 320 281 277 274 242 260 272 271 259 259 265 286 263 165 176 216 210 228 186 192 181 177 149 180 208 214 246 280 246 159 138 142 244 161
305 297 293 297 297 302 300 305 305 306 310 309 292 287 281 278 276 268 260 260 266 261 262 291 277 184 295 211 208 202 216 215 198 179 178 170 161 184 178 193 266 163 101 172 197 86 135
304 302 295 287 294 299 300 301 300 296 299 301 294 284 278 259 275 287 281 270 258 260 261 257 249 267 216 196 215 179 231 190 193 230 152 197 192 178 183 203 210 206 169 154 147 147 155
Height
869 867 866 864 863 860 859 857 854 852 849 847 844 841 839 838 837 836 836 835 835 835 834 833 831 829 828 828 828 825 823 821 818 817 816 817 818 818 822 818 814 810 808 803 799 797 791
869 868 866 865 864 861 859 857 854 851 849 846 842 839 838 837 836 835 834 833 833 833 833 832 830 830 829 832 824 824 822 821 819 818 817 817 818 817 818 816 816 808 806 801 797 794 791
871 869 867 866 864 862 860 857 854 851 848 845 841 839 838 836 835 834 832 832 831 831 831 830 830 830 830 829 823 822 821 820 819 818 817 817 817 818 817 816 807 806 809 801 792 788 788
872 870 868 867 865 863 860 858 855 852 849 845 841 838 837 835 833 832 830 829 829 829 829 829 829 830 829 823 822 821 820 819 818 818 816 815 815 816 815 810 808 808 807 810 791 785 782
872 872 870 868 866 864 861 858 855 852 849 845 841 838 836 834 832 830 829 828 827 827 828 828 828 829 828 821 820 819 819 819 817 816 815 813 814 815 813 818 820 814 822 810 797 780 781
873 872 870 868 866 864 861 858 855 852 849 846 842 839 836 834 832 830 828 827 827 827 827 827 827 832 823 820 817 816 817 817 816 815 813 814 817 819 821 822 830 817 814 803 801 784 785
873 872 870 869 866 864 861 858 855 853 850 847 843 840 837 834 832 830 828 826 829 830 828 824 822 819 817 816 815 814 815 815 815 816 819 816 820 821 813 803 801 802 804 801 785 777 782
873 872 870 869 867 864 861 859 856 853 851 847 844 841 837 834 832 830 829 829 833 835 833 819 820 819 817 817 818 813 814 817 815 821 815 819 820 802 797 795 797 796 799 795 780 771 778
873 873 870 868 867 864 862 859 856 853 850 847 844 840 837 834 833 832 832 833 832 833 837 821 819 820 819 820 818 813 813 814 816 818 813 816 804 794 794 796 795 791 792 787 784 774 770
874 872 871 869 867 864 862 859 856 853 850 846 843 840 837 834 835 834 834 834 832 832 846 827 822 819 819 819 821 813 812 815 814 814 809 811 794 794 798 797 791 797 777 778 778 784 800
875 873 872 870 867 865 863 860 856 853 849 846 842 839 836 834 834 833 835 834 833 832 868 823 820 817 815 821 818 814 814 815 816 811 812 812 798 798 800 791 789 790 779 778 775 782 787
875 874 872 870 868 865 863 861 857 853 849 845 841 839 836 835 834 834 833 832 834 850 858 824 818 818 820 818 814 811 813 815 812 811 809 805 793 795 796 789 787 780 779 774 774 782 804
874 872 871 869 868 865 863 860 857 853 849 844 841 837 835 835 835 833 833 832 851 862 822 822 819 817 821 820 814 813 813 819 823 833 822 808 795 791 791 795 786 791 796 819 810 807 797
873 871 870 869 866 864 862 860 857 853 849 844 839 836 834 833 833 832 833 840 850 829 820 816 819 818 822 818 815 814 817 823 816 818 836 839 822 791 790 793 797 799 796 832 810 820 808
872 870 868 866 864 863 859 858 856 852 849 843 837 834 832 832 833 832 837 857 841 825 812 817 817 821 819 817 819 815 814 820 815 816 826 835 814 792 789 788 794 793 805 792 804 801 829
871 870 867 865 863 860 858 855 853 851 849 844 839 834 831 831 832 833 841 840 822 810 816 816 820 817 819 815 820 818 814 809 813 813 816 820 830 796 787 790 790 793 795 808 815 811 801
873 869 868 865 863 859 856 854 852 850 848 844 840 838 830 830 832 837 847 834 813 812 813 819 817 817 820 815 816 820 813 809 809 815 814 816 821 806 793 795 793 796 796 795 801 812 819
873 870 867 867 863 860 857 853 851 848 846 843 841 843 831 830 838 837 832 817 811 813 814 816 817 815 815 816 817 819 814 806 809 811 817 816 823 833 801 792 789 789 791 794 815 804 810
873 871 868 867 864 861 858 854 851 848 846 847 844 837 830 831 837 834 821 813 811 814 816 816 815 815 811 814 820 815 808 810 809 813 816 817 825 842 806 798 791 790 789 788 793 804 807
873 872 870 867 864 862 859 855 852 848 846 848 847 844 833 831 830 824 819 814 813 808 809 808 808 808 812 817 814 812 809 808 810 809 811 815 824 820 822 805 802 801 791 793 795 818 796
874 873 869 867 863 861 859 857 853 849 845 847 843 840 830 833 830 825 818 812 808 808 808 807 809 808 811 817 811 813 809 809 812 813 813 816 824 821 811 805 801 796 794 791 799 791 790
874 871 869 866 864 862 860 856 853 850 844 844 840 835 830 832 823 820 823 815 810 807 808 809 810 802 809 809 802 803 803 804 804 816 819 819 820 809 812 795 801 797 786 782 778 780 781
872 870 868 866 864 861 860 857 853 850 848 846 843 841 838 821 818 818 817 811 804 802 797 794 798 802 803 798 791 789 792 793 795 808 815 820 824 822 815 807 801 786 773 772 771 768 770
870 868 866 864 863 862 859 857 856 852 852 851 849 848 844 823 819 814 810 808 806 805 802 795 793 796 788 786 786 788 790 791 796 799 801 812 816 822 825 813 807 767 769 769 769 772 771
866 865 863 863 862 860 858 857 856 853 852 850 849 849 842 825 820 817 817 808 801 798 796 793 790 786 782 785 794 794 798 796 794 802 801 802 810 815 822 817 789 765 768 769 769 767 768
862 861 860 860 860 858 856 856 855 853 851 849 847 847 844 832 813 818 819 817 808 800 792 786 783 782 780 788 793 798 790 789 801 804 801 801 806 812 822 809 788 761 762 763 764 770 766
858 857 856 855 854 854 852 852 851 850 848 847 845 844 843 830 811 816 814 809 803 796 788 786 787 783 778 785 785 792 784 772 786 798 812 812 814 807 816 811 790 764 761 764 772 764 763
853 852 850 850 849 848 848 847 846 845 844 843 841 840 841 827 805 808 806 805 806 803 798 785 784 780 786 781 777 777 779 765 768 772 784 786 802 808 812 816 795 758 764 766 759 759 762
848 846 845 844 843 842 841 840 839 838 838 838 835 834 833 828 800 802 793 792 801 794 794 785 775 770 764 769 773 768 763 766 756 753 762 761 752 769 769 762 749 752 747 751 754 759 761